User: anonymous   Login
Location: Unspecified
(0.0000°N, 0.0000°E)
Time: 00:20:31
(UTC+00:00)
Language:

FALCONSAT 3 - Orbit

View from above orbital plane
View from above orbital plane
View from above satellite
View from above satellite

Ground track
Ground track

The orbit data is extracted from the following two-line orbital elements,

1 30776U 07006E   18203.59629537 +.00002440 +00000-0 +72381-4 0  9991
2 30776 035.4366 041.3062 0003438 331.4483 028.6054 15.34672408629767
Epoch (UTC): 22 July 2018 14:18:39
Eccentricity: 0.0003438
inclination: 35.4366°
perigee height: 459 km
apogee height: 464 km
right ascension of ascending node: 41.3062°
argument of perigee: 331.4483°
revolutions per day: 15.34672408
mean anomaly at epoch: 28.6054°
orbit number at epoch: 62976

The dashed part of the orbit path shows where the satellite is in the earth's shadow,  

DLR